Charles B. Wheeler Downtown Airport
KMKC : now visible

Airfield :











YOU CAN JOIN US ON...

 
LOGIN :

Register | Disclaimer

   EN    FR    IT 

 









Legend :    VFR   Marginal VFR   IFR   Intensive IFR   Very Intensive IFR
Visi :
Ceiling :
>= 8 km
>= 3000ft
5 to 8 km
1000 to 3000 ft
1500m to 5 km
500 to 1000 ft
800 to 1500m
200 to 500 ft
< 800m
< 200 ft
Symbols :   Thunderstorms  Fog  Heavy snow  Heavy precipitations  Wind > 20 kt






- Airport Elevation : 759 ft
- IATA code : MKC


KMKC - Charles B. Wheeler Downtown

CURRENT METAR :
  • 272154Z 34008KT 10SM CLR 10/M04 A3023 RMK AO2 SLP240 T01001039

EXPIRED METARs :
  • 272054Z 33005KT 10SM CLR 11/M03 A3022 RMK AO2 SLP236 T01111033 56010

TAF KMKC
Valid from the 27 at 18:00 until the 28 at 18:00 UTC


271720Z 2718/2818 31007KT P6SM SKC
FM280100 22003KT P6SM SKC
KZKC FIR / North America



MET'MAP, your aeronautical weather chart ! - Copyright ORBIFLY December 2007 - Disclaimer

ORBIFLY MET'MAP TEAM :

Programming & Development : Alexandra Zaïnal
Concept & original design : Baudouin d'Aumeries
Assistance for programming : Marc-Olivier Méhu
Technical & hardware support : Manuel Goepfert

Contact : metmap@orbifly.com




SOURCES & CREDITS :

   NOAA       Earth
Advisory